Location: Unspecified
(0.0000°N, 0.0000°E)
Time: 22:15:28
(UTC+00:00)

OBJECT B - Visible Passes

Search period start: 09 February 2026 00:00
Search period end: 19 February 2026 00:00
Orbit: 523 x 554 km, 97.5° (Epoch: 9 February)

Date Brightness Start Highest point End Pass type
(mag) Time Alt. Az. Time Alt. Az. Time Alt. Az.
9 Feb ? 05:38:02 10° NNE 05:41:57 62° ESE 05:45:53 10° S visible
10 Feb ? 05:30:22 10° NNE 05:34:09 46° ESE 05:37:58 10° S visible
11 Feb ? 05:22:45 10° NE 05:26:21 34° ESE 05:29:59 10° SSE visible
12 Feb ? 05:15:12 10° NE 05:18:33 26° ESE 05:21:54 10° SSE visible
12 Feb ? 18:48:14 10° WSW 18:48:56 10° WSW 18:49:39 10° W visible
13 Feb ? 05:07:47 10° NE 05:10:45 20° ESE 05:13:42 10° SSE visible
13 Feb ? 18:39:06 10° SW 18:41:07 14° WSW 18:43:07 10° WNW visible
14 Feb ? 05:00:30 10° ENE 05:02:55 16° ESE 05:05:19 10° SE visible
15 Feb ? 04:53:35 10° E 04:55:05 12° ESE 04:56:36 10° SE visible
